Location: Unspecified
(0.0000°N, 0.0000°E)
Time: 11:23:49
(UTC+00:00)

Explorer 11/Cluster Stage 4 - Pass Details

Date: 02 October 2020
Orbit: 467 x 1258 km, 28.8° (Epoch: 28 October)

Event Time Altitude Azimuth Distance (km) Brightness Sun altitude
Rises 09:25:42 0° 268° (W) 4,194 10.0 53.9°
Reaches altitude 10° 09:29:36 10° 253° (WSW) 3,194 9.5 54.9°
Maximum altitude 09:35:12 20° 208° (SSW) 2,395 9.2 56.3°
Drops below altitude 10° 09:40:26 10° 163° (SSE) 2,926 9.8 57.6°
Sets 09:43:50 0° 147° (SSE) 3,746 10.3 58.4°
